Estación municipal de Queralbs (Ripollès, P.N.de les capçaleres del Ter i el Freser)

Consulta los datos en tiempo real de la estación municipal de Queralbs





Hora UTC 04:05
Temperatura 3.5 ºC
Humedad 96.8 %
Pluja 0.0 mm
Velocidad viento 0.8 km/h
Dirección viento NNW

Datos diarios 2026-05-07



Hora UTC (invierno +1h; verano +2h)
Temperatura (ºC) Humedad (%) Velocidad viento (km/h) Precipitación (mm)
Hora UTC Aire Humedad Vel. Dir. Vel. Max Dir. Intent. máx 5 min.
00:05 4.8 95.8 0.0 N 0.0 N 0.0
00:10 4.7 95.8 0.3 N 1.4 N 0.0
00:15 4.7 95.9 0.0 NNE 0.0 N 0.0
00:20 4.7 96.0 0.0 NNW 1.1 NNW 0.0
00:25 4.7 96.2 0.0 NNE 0.0 N 0.0
00:30 4.8 96.1 0.0 NNE 0.0 NNW 0.0
00:35 4.8 96.1 0.0 NNE 0.0 N 0.0
00:40 4.8 96.2 0.1 SSW 1.8 S 0.0
00:45 4.9 96.2 0.0 NNE 0.0 SW 0.0
00:50 4.9 96.2 0.5 ESE 2.1 SE 0.0
00:55 4.9 96.2 0.0 NNE 0.0 NNW 0.0
01:00 4.9 96.2 0.0 SSW 1.4 S 0.0
01:05 4.9 96.3 1.5 NNE 2.8 N 0.0
01:10 4.9 96.4 0.0 NE 1.4 NE 0.0
01:15 4.9 96.3 0.5 NNW 1.8 NNW 0.0
01:20 4.9 96.2 0.1 WNW 1.4 WNW 0.0
01:25 4.9 96.1 0.5 ENE 2.8 ENE 0.0
01:30 4.9 96.3 0.4 ESE 1.4 ENE 0.0
01:35 4.9 96.4 0.5 NNW 1.8 NNW 0.0
01:40 4.8 96.5 0.8 NNW 2.5 NNW 0.0
01:45 4.8 96.4 1.2 SW 4.2 SW 0.0
01:50 4.8 96.4 1.0 SW 2.8 SW 0.0
01:55 4.8 96.4 0.5 SE 2.5 ESE 0.0
02:00 4.8 96.3 0.0 E 1.1 E 0.0
02:05 4.8 96.4 0.5 NNW 1.4 NNW 0.0
02:10 4.8 96.5 0.9 N 2.1 NNW 0.0
02:15 4.8 96.6 0.0 NNE 0.0 N 0.0
02:20 4.8 96.7 0.0 NNE 0.0 NNE 0.0
02:25 4.8 96.5 0.0 NNE 0.0 N 0.0
02:30 4.8 96.4 0.0 NNE 0.0 NW 0.0
02:35 4.7 96.4 0.0 NNE 0.0 WNW 0.0
02:40 4.7 96.5 0.0 NNE 0.0 NNW 0.0
02:45 4.6 96.4 0.2 SW 2.1 S 0.0
02:50 4.6 96.5 0.2 WSW 2.5 S 0.0
02:55 4.5 96.3 0.0 SSW 1.4 SSW 0.0
03:00 4.4 96.2 0.6 WSW 2.1 WSW 0.0
03:05 4.2 96.2 0.0 NNE 0.0 N 0.0
03:10 4.1 96.3 0.8 SW 2.1 NE 0.0
03:15 4.0 96.4 0.8 WNW 2.5 N 0.0
03:20 4.0 96.4 0.0 NNE 0.0 WNW 0.0
03:25 3.8 96.2 0.3 W 2.1 WSW 0.0
03:30 3.7 96.4 0.9 SW 2.1 WSW 0.0
03:35 3.6 96.5 0.1 S 2.5 SSE 0.0
03:40 3.6 96.5 1.0 SSW 2.5 SSW 0.0
03:45 3.5 96.6 0.0 NNE 0.0 WSW 0.0
03:50 3.5 96.8 0.0 NNE 0.0 W 0.0
03:55 3.5 97.0 0.0 WSW 1.1 WSW 0.0
04:00 3.6 97.0 0.1 N 2.1 0.0
04:05 3.5 96.8 0.8 NNW 2.5 WSW 0.0
Máxima 4.9 97.0 1.5 NNE 4.2 SW 0.0
Mínima 3.5 95.8
Total 0.0